Home   Weather   Aurora   Past weeks
Flag for USA

Past Weather in Aurora, Colorado, USA — Yesterday and Last 2 Weeks

Now
61 °F

Passing clouds.


Feels Like: 61 °F
Forecast: 78 / 47 °F
Wind: No wind

Location: Buckley Air Force Base

Current Time: May 26, 2019 at 11:23:21 am

Latest Report: May 26, 2019 at 10:58 am


Visibility: 10 mi

Pressure: 29.86 "Hg (24.58 "Hg at 1647m altitude)

Humidity: 67%

Dew Point: 50 °F

Location of AuroraLocation

Past Weather in Aurora — Graph

°F

Aurora Temperature Yesterday

Maximum temperature yesterday: 75 °F (at 3:58 pm)
Minimum temperature yesterday: 41 °F (at 3:58 am)
Average temperature yesterday: 58 °F

High & Low Weather Summary for the Past Weeks

 TemperatureHumidityPressure
High82 °F (May 15, 2:58 pm)100% (May 12, 1:58 am)30.08 "Hg (May 12, 1:58 am)
Low30 °F (May 21, 6:24 am)16% (May 15, 4:58 pm)29.30 "Hg (May 17, 12:58 pm)
Average51 °F64%29.79 "Hg
* Reported May 11 10:58 am — May 26 10:28 am, Aurora. Weather by CustomWeather, © 2019

Note: Actual official high and low records may vary slightly from our data, if they occured in-between our weather recording intervals... More about our weather records

Advertising

Aurora Weather History for the Previous 24 Hours

Scroll right to see more
 ConditionsComfort  
Time TempWeatherWind HumidityBarometerVisibility
10:28 am
Sun, May 26
59 °FPassing clouds.5 mph72%29.87 "Hg10 mi
9:58 am58 °FPartly sunny.No wind76%29.88 "Hg10 mi
8:58 am55 °FOvercast.10 mph93%29.89 "Hg8 mi
8:31 am54 °FMostly cloudy.9 mph100%29.89 "Hg7 mi
7:58 am52 °FFog.8 mph100%29.89 "Hg3 mi
6:58 am49 °FFog.6 mph100%29.85 "Hg1 mi
6:30 am48 °FFog.8 mph94%29.85 "Hg0 mi
5:58 am46 °FPassing clouds.7 mph100%29.85 "Hg8 mi
4:58 am45 °FPassing clouds.7 mph99%29.84 "Hg8 mi
3:58 am49 °FClear.6 mph91%29.82 "Hg8 mi
2:58 am52 °FClear.No wind96%29.80 "Hg8 mi
1:58 am52 °FClear.3 mph96%29.81 "Hg10 mi
12:58 am55 °FPassing clouds.12 mph83%29.80 "Hg10 mi
11:58 pm
Sat, May 25
55 °FPassing clouds.8 mph84%29.82 "Hg10 mi
10:58 pm53 °FPassing clouds.10 mph80%29.84 "Hg10 mi
9:58 pm56 °FPassing clouds.12 mph64%29.83 "Hg10 mi
8:58 pm57 °FPassing clouds.12 mph59%29.81 "Hg10 mi
7:58 pm64 °FBroken clouds.6 mph48%29.80 "Hg10 mi
6:58 pm70 °FPartly sunny.No wind36%29.80 "Hg10 mi
5:58 pm70 °FPartly sunny.9 mph31%29.80 "Hg10 mi
4:58 pm74 °FScattered clouds.15 mph26%29.80 "Hg10 mi
3:58 pm75 °FBroken clouds.20 mph26%29.80 "Hg10 mi
2:58 pm73 °FScattered clouds.23 mph28%29.81 "Hg10 mi
1:58 pm70 °FPassing clouds.20 mph35%29.85 "Hg10 mi
12:58 pm68 °FPassing clouds.21 mph36%29.87 "Hg10 mi
11:58 am66 °FPassing clouds.16 mph38%29.90 "Hg10 mi
Weather by CustomWeather, © 2019

See weather overview